Theta_e
293 294 295 296 296 297 297 298 299 298 299 299 300 301 301 301 302 302 303 303 304 305 307 308 307 308 310 308 310 307 308 310 308 312 311 312 314 312 315 314 313 313 314 313 315 316 315 314 314 316 315 313 314 314
293 294 295 296 296 296 298 298 299 298 299 300 300 301 302 302 302 302 302 302 303 304 305 305 305 305 308 309 308 307 309 309 307 310 310 310 311 310 312 316 314 317 315 316 315 315 312 314 314 313 313 313 313 313
293 294 295 295 296 296 298 299 298 299 299 300 300 301 302 302 302 302 302 303 303 303 303 304 305 305 306 308 308 308 307 308 309 306 308 309 310 308 312 312 311 310 311 316 315 313 312 311 311 311 311 312 313 311
293 294 295 295 295 296 298 298 299 299 301 301 300 301 302 302 301 301 302 303 303 303 303 304 304 305 307 307 307 308 307 307 306 305 308 309 309 305 308 307 308 308 308 312 314 311 310 310 309 310 312 311 310 310
293 294 295 295 296 296 297 298 299 299 300 301 301 300 300 300 300 300 303 304 304 303 305 305 304 307 307 307 308 309 307 307 306 307 308 307 304 305 304 305 307 306 308 310 310 307 308 308 308 308 310 310 308 307
293 294 295 296 296 297 297 299 300 300 300 300 300 301 301 301 300 300 304 304 304 304 303 305 304 307 307 308 308 307 308 307 306 306 305 305 304 305 306 305 305 304 304 304 307 306 306 307 308 308 308 307 306 305
294 295 295 296 297 297 298 299 299 300 301 300 300 301 301 302 301 301 301 302 304 303 303 305 306 306 308 308 308 308 308 306 305 304 305 305 305 306 306 306 305 304 304 304 305 306 306 308 308 306 305 304 304 303
294 295 296 297 298 298 298 298 299 300 301 301 301 301 302 302 302 302 302 302 302 303 302 304 305 305 307 308 306 306 306 305 304 304 304 305 304 304 305 305 304 305 306 308 308 308 308 308 307 304 304 303 302 301
294 295 296 297 298 298 298 298 299 300 301 301 301 301 302 302 302 302 303 302 302 302 304 303 306 308 305 306 306 306 305 306 304 305 304 304 305 305 305 305 305 306 308 308 308 307 306 305 304 303 303 301 300 299
293 294 296 297 299 298 297 298 299 300 301 301 301 301 301 301 302 302 302 302 302 302 302 303 302 307 305 303 303 306 304 304 305 304 303 305 305 304 305 307 306 306 305 307 307 307 305 304 303 302 301 299 298 297
293 295 296 297 298 299 298 298 299 300 300 300 301 301 301 301 300 301 302 303 303 303 303 302 303 305 306 308 306 304 304 304 306 306 305 305 306 307 307 307 307 307 307 304 302 302 301 301 300 299 298 298 297 295
294 296 297 298 298 299 298 298 299 299 299 300 300 301 301 300 300 301 302 303 303 303 302 303 303 303 306 305 306 306 306 305 306 304 305 308 309 307 305 304 304 303 303 302 301 300 299 298 297 297 297 296 295 294
295 296 297 298 299 300 300 298 299 300 299 300 301 300 300 300 301 303 303 304 304 303 303 303 305 304 305 304 305 304 305 305 305 307 308 309 306 305 303 303 302 301 300 299 298 298 297 296 296 296 295 294 293 291
296 296 297 298 299 299 299 299 299 300 300 301 301 301 301 303 303 304 304 305 304 304 304 304 304 305 303 305 304 305 304 305 307 308 310 307 306 304 303 302 300 299 298 297 297 297 296 296 295 295 294 293 291 289
296 297 297 299 300 299 299 299 299 300 299 301 301 301 304 301 301 302 301 301 303 305 304 302 303 304 305 304 304 305 304 305 306 309 307 306 305 303 301 300 298 298 298 297 297 297 295 295 294 294 293 292 290 289
298 297 298 300 300 299 299 299 300 301 300 300 300 301 301 302 303 304 304 305 305 305 304 304 304 305 305 305 306 307 308 309 309 307 306 305 303 301 300 298 298 298 298 296 296 296 295 294 294 293 292 291 289 288
297 298 298 300 299 299 299 300 300 300 300 300 301 300 301 301 302 304 305 306 306 305 306 305 305 307 305 307 308 307 308 308 307 306 304 303 302 301 300 299 299 299 298 297 295 295 295 295 294 292 291 290 289 288
297 297 299 300 300 300 299 300 300 300 300 300 300 301 300 301 302 304 306 306 305 305 305 306 306 308 309 309 309 305 307 305 304 304 303 302 302 300 299 299 299 299 298 297 294 294 294 294 294 293 291 290 289 288
298 297 298 300 300 300 299 300 298 299 299 299 300 301 303 304 304 305 307 306 306 305 305 305 306 308 308 307 307 308 307 304 303 303 302 302 301 300 299 298 298 298 298 297 295 294 294 294 293 293 292 291 290 289
297 297 298 299 299 299 299 299 299 298 299 300 300 301 304 305 305 307 306 306 305 305 305 306 306 305 305 305 306 307 308 303 303 303 302 301 301 300 299 299 299 298 297 296 295 294 294 293 293 293 293 292 291 291
298 298 298 298 299 299 299 300 299 299 299 300 301 303 304 305 307 307 307 306 306 306 305 304 303 304 306 307 307 308 308 304 303 302 301 300 300 300 300 299 299 298 297 296 295 294 293 293 293 293 293 292 292 291
298 298 298 299 299 299 299 299 300 300 300 302 303 303 305 305 305 307 307 306 301 301 301 300 302 306 307 307 306 306 308 306 303 303 301 301 301 300 299 298 298 298 297 296 295 294 293 293 293 293 293 292 292 292
299 298 299 299 299 298 299 299 300 302 303 304 304 306 305 305 304 306 306 304 302 300 300 302 304 305 307 306 305 304 308 307 304 303 302 301 301 301 300 298 298 297 297 296 295 294 293 292 292 292 292 292 292 292
299 299 299 299 300 300 299 301 300 302 304 305 306 306 307 306 306 307 306 301 299 299 299 301 303 305 306 305 303 305 308 307 304 303 302 302 302 301 300 299 297 297 297 296 295 295 294 293 292 292 292 292 292 291
300 300 301 300 300 301 302 303 304 305 304 304 304 305 307 306 306 306 304 298 297 297 297 298 301 302 302 303 303 303 306 307 304 302 302 302 302 301 300 299 298 297 297 296 296 295 295 294 293 292 291 291 291 291
301 301 302 302 302 303 304 305 304 304 305 306 306 306 306 306 306 303 298 295 295 294 295 297 298 301 302 303 304 303 304 306 305 305 303 302 302 301 301 299 298 298 298 297 297 296 295 295 294 294 293 293 292 291
301 301 301 302 302 304 304 304 303 305 306 307 306 304 303 307 303 297 293 294 293 295 296 297 298 299 301 303 304 304 301 302 303 302 302 302 301 301 301 300 299 299 298 297 297 297 296 295 295 294 294 294 293 292
301 301 304 303 304 303 304 304 305 304 303 301 302 301 301 299 298 292 293 293 294 295 296 297 299 300 301 303 304 304 301 300 301 300 300 300 300 300 300 299 299 299 298 298 297 297 297 296 295 295 295 294 294 293
300 301 302 302 303 304 303 303 302 300 299 300 301 299 296 292 292 293 293 294 294 295 296 298 299 300 302 303 304 304 301 299 300 301 301 300 300 300 300 300 299 299 298 298 298 297 297 296 296 295 295 295 294 294
301 300 302 302 302 303 301 301 300 299 298 298 297 294 292 291 291 291 292 293 294 294 294 295 297 298 300 302 304 303 303 299 298 299 301 301 301 300 300 300 299 299 299 298 298 297 297 296 295 295 295 295 294 294
302 302 303 302 301 300 299 299 298 297 296 295 294 294 292 292 291 290 290 291 292 293 294 294 295 296 298 299 300 303 303 302 298 298 299 300 300 299 299 298 299 299 299 298 298 297 296 295 295 295 295 294 293 293
302 303 301 302 299 299 299 298 298 297 297 296 295 293 292 291 291 290 290 290 291 292 292 293 293 294 295 296 297 298 299 298 299 298 299 300 299 297 297 298 298 298 297 297 297 296 295 295 295 294 293 292 292 292
302 301 300 299 298 299 298 298 299 297 297 296 295 294 293 292 291 289 289 289 290 290 290 291 292 293 293 295 296 297 299 299 299 299 299 301 298 296 295 295 296 296 296 295 295 295 295 294 294 293 291 291 290 289
Wind_Speed
20 18 18 22 24 23 17 21 23 21 17 16 18 15 15 16 17 13 9 12 11 5 5 9 12 10 7 6 2 2 3 3 3 3 2 2 2 2 3 7 7 6 6 4 4 3 6 7 7 4 4 2 3 4
19 16 18 21 22 24 17 20 21 20 17 15 14 13 15 16 15 14 10 10 10 5 7 16 10 6 5 8 5 7 3 2 3 3 2 2 2 1 1 5 2 5 2 4 5 2 2 5 4 1 2 5 5 5
18 15 19 21 22 24 16 19 18 18 16 13 10 11 13 14 14 13 11 12 8 5 4 6 7 5 1 3 2 4 3 3 4 4 2 2 4 1 2 2 1 2 1 1 3 2 4 6 7 5 7 8 5 7
13 15 18 20 22 22 15 15 15 15 17 13 10 12 11 12 13 14 11 8 9 4 3 3 11 4 1 3 2 0 4 7 8 6 4 3 2 2 1 2 2 2 1 3 4 3 6 7 4 8 6 5 7 7
14 17 20 21 20 20 15 14 14 14 14 13 12 12 13 12 12 11 7 9 8 3 2 6 3 13 2 3 2 5 6 6 6 3 3 3 2 1 2 1 3 4 2 3 3 3 2 6 7 11 7 7 8 9
15 18 18 18 19 18 17 14 13 13 14 13 14 13 13 13 10 8 2 5 10 3 2 2 4 11 10 8 12 11 9 9 6 4 3 2 2 2 0 1 2 3 4 3 2 0 6 12 9 4 5 5 4 5
17 18 17 16 19 17 14 15 14 14 15 13 14 16 13 11 6 3 2 7 7 5 2 1 2 2 5 6 10 11 9 7 5 3 2 1 2 1 2 2 1 3 5 7 8 8 10 5 3 4 4 5 4 5
16 17 14 15 17 17 15 14 16 15 15 14 13 13 8 7 6 5 5 6 8 3 3 2 1 2 3 3 4 4 4 5 6 2 1 1 1 2 2 6 9 8 6 1 1 4 7 5 6 4 4 5 7 9
15 16 14 14 17 17 13 12 15 15 15 12 8 7 4 4 4 5 3 5 5 4 2 2 2 2 4 5 4 3 3 2 1 1 1 1 0 2 3 6 7 2 5 6 6 4 4 3 2 4 6 8 8 10
14 13 14 14 15 16 12 12 15 15 15 8 6 3 3 5 7 5 2 1 2 2 2 1 2 2 3 2 2 2 2 1 1 1 2 1 2 9 10 13 13 8 5 7 7 8 7 6 5 6 7 8 9 9
13 10 12 14 13 13 12 11 13 13 12 10 6 4 6 5 5 3 3 3 3 1 1 1 2 2 2 1 2 0 2 1 0 2 1 1 2 1 8 12 10 10 5 3 3 3 5 6 7 8 10 9 7 10
14 9 11 12 13 13 11 10 11 11 10 11 8 5 5 3 2 1 1 1 1 2 1 2 1 2 1 1 2 1 1 1 1 4 1 1 2 5 4 9 10 8 7 7 7 7 7 8 9 10 10 6 10 14
14 12 9 10 13 14 11 7 9 9 10 6 3 3 3 2 1 1 2 1 1 3 1 0 1 1 0 2 3 1 2 1 2 2 1 2 7 7 6 8 9 10 10 10 10 7 6 8 11 10 8 11 14 14
17 13 6 7 9 10 7 6 8 8 5 3 4 3 2 1 1 1 2 2 2 4 4 2 2 1 1 1 1 2 1 1 2 2 1 2 9 6 6 7 8 10 11 12 12 9 11 13 11 10 11 14 16 12
13 12 7 3 7 9 6 6 6 5 4 2 3 2 2 5 7 6 3 4 3 2 3 4 2 1 1 1 0 2 2 2 3 1 1 8 5 10 9 9 11 11 10 13 12 10 13 12 12 11 12 14 16 14
12 10 2 3 6 6 5 5 3 5 2 2 2 2 4 4 6 4 1 2 2 4 4 2 1 1 1 0 2 3 2 2 1 2 8 7 12 11 11 11 11 10 11 14 13 11 14 15 15 13 13 15 16 16
13 10 4 3 3 4 4 6 2 2 2 2 2 4 4 5 6 5 7 3 2 1 1 1 0 2 1 2 2 1 1 2 5 6 9 13 12 12 11 10 8 7 10 13 13 14 15 16 16 15 16 16 15 16
18 9 6 3 2 5 5 2 2 1 2 3 5 5 4 8 8 6 5 1 0 1 1 1 2 1 2 3 2 1 2 6 8 9 11 12 13 11 9 8 6 5 8 12 13 14 15 17 19 19 17 16 17 18
11 10 9 5 3 2 2 1 1 2 2 5 7 7 5 8 7 6 3 1 2 1 1 1 1 1 1 1 3 6 6 7 9 10 12 11 11 10 10 9 9 8 9 11 13 16 17 17 18 18 19 20 21 21
8 10 9 5 6 3 2 1 1 2 3 3 6 5 5 6 6 1 2 2 3 2 1 2 2 4 7 4 3 3 4 13 12 12 11 10 11 10 8 6 6 7 8 10 13 14 15 16 17 17 19 21 22 23
7 6 8 9 8 3 2 1 2 3 4 4 5 6 3 3 3 1 0 2 3 3 3 6 12 16 13 9 6 4 4 14 13 14 15 14 11 9 8 7 6 6 7 8 10 13 14 16 16 15 17 20 21 22
4 5 4 7 2 2 3 4 3 3 3 5 6 2 3 1 1 1 4 4 3 5 6 10 15 16 10 11 10 2 6 11 12 8 13 13 12 10 9 8 8 7 6 7 8 11 13 13 13 15 16 18 20 21
6 5 2 2 2 2 2 2 2 2 2 2 2 2 1 0 1 5 3 3 3 6 11 13 14 10 4 7 11 1 8 9 12 10 13 14 10 8 7 7 7 6 7 8 8 9 11 12 12 14 15 17 18 20
3 0 1 1 3 2 1 2 3 3 3 2 2 1 1 2 4 0 2 3 2 7 13 14 15 12 5 5 9 8 12 9 10 11 14 12 10 10 9 7 7 7 7 8 9 9 11 11 11 12 13 14 16 18
1 2 1 2 2 2 2 1 2 2 1 0 1 1 2 2 1 2 1 2 5 8 13 15 11 10 8 6 5 4 6 11 12 11 12 12 11 11 14 10 9 7 6 8 9 10 11 11 12 12 13 13 14 16
2 3 3 1 2 2 1 1 1 1 1 1 2 2 2 1 1 2 2 4 7 11 16 15 14 12 7 5 1 3 4 9 11 11 13 13 11 13 16 17 13 11 9 7 7 9 10 11 11 12 13 14 14 15
2 2 3 3 2 2 2 1 2 0 1 2 1 1 2 2 1 2 2 5 12 13 12 11 11 10 10 4 3 4 2 5 5 3 5 9 8 10 10 11 10 9 10 10 8 6 7 8 9 8 9 10 11 12
3 2 1 1 1 1 1 2 1 2 2 2 1 2 1 1 1 2 3 8 11 11 11 10 9 9 10 5 5 6 3 7 8 8 9 10 11 11 11 9 9 9 8 9 8 7 5 4 5 6 6 5 5 6
3 2 1 1 1 1 1 1 1 1 1 1 1 2 3 2 0 3 3 5 8 9 9 9 10 7 5 3 10 14 2 8 12 10 11 11 12 12 14 13 12 12 12 11 10 8 6 5 4 5 4 3 3 2
3 4 2 2 1 1 1 1 3 3 1 3 3 3 3 5 2 3 5 4 6 9 10 10 9 11 6 3 8 18 14 9 8 8 5 6 9 12 14 15 16 15 14 13 13 12 10 8 8 7 6 4 5 5
1 3 2 2 2 2 4 5 6 6 3 3 3 2 3 4 3 2 7 7 5 5 7 8 8 9 7 3 4 15 22 18 6 6 5 3 4 6 9 12 14 15 15 14 13 12 10 10 9 7 4 3 4 5
4 3 3 2 1 4 7 5 4 2 3 2 1 0 0 1 2 2 5 8 6 4 5 7 8 9 7 5 3 7 16 18 10 5 10 7 3 4 7 11 14 14 14 14 13 12 11 9 7 5 3 3 4 5
4 5 3 3 3 4 5 5 5 3 2 2 2 4 3 2 1 2 7 8 7 6 5 6 7 8 9 8 5 3 13 14 14 9 10 6 6 7 9 11 12 14 14 13 13 12 11 9 6 5 4 4 5 5
Wind_Direction
339 342 348 344 341 343 349 350 350 354 354 350 350 357 4 5 4 8 350 354 13 340 335 37 14 23 21 29 32 68 227 18 18 65 63 72 94 86 116 131 157 165 160 183 169 188 249 136 135 221 78 170 223 249
339 344 349 345 342 341 350 350 353 356 348 2 353 2 5 10 360 6 9 351 336 319 298 322 337 356 23 34 24 23 87 33 47 94 81 129 99 103 112 157 128 176 225 179 206 198 51 157 93 25 294 283 281 275
340 349 349 349 343 343 349 354 359 352 351 354 3 348 358 2 3 359 3 7 6 341 328 39 27 24 111 153 62 1 34 62 60 72 97 83 83 330 125 104 173 105 142 213 210 126 219 260 279 287 305 282 279 286
348 348 346 347 344 342 344 353 355 358 357 350 348 344 0 358 357 353 352 11 18 357 360 14 19 62 143 170 166 77 71 99 86 65 66 63 78 325 85 38 292 36 205 203 254 248 268 272 297 333 318 298 300 300
345 350 348 348 344 341 341 342 354 350 354 353 356 351 345 344 353 355 14 37 23 26 347 323 21 14 316 209 148 142 124 95 61 61 50 62 56 196 52 266 234 206 218 211 269 54 301 302 315 316 295 297 297 288
347 351 350 351 350 348 343 341 344 342 344 340 340 337 333 336 336 341 318 1 13 7 10 24 17 23 75 112 128 120 93 67 72 69 75 87 79 71 74 257 288 254 264 270 329 84 301 302 304 293 281 277 266 273
347 348 348 350 355 348 342 336 336 334 337 330 328 333 336 340 359 39 31 1 47 23 8 344 60 35 93 93 89 76 71 64 65 78 69 112 122 179 166 253 2 358 319 287 273 271 283 254 288 300 279 271 288 304
343 344 344 345 350 348 340 342 331 331 331 332 323 333 0 39 66 50 39 48 8 28 41 359 331 2 44 78 60 45 62 52 42 84 56 38 94 62 259 269 309 320 309 10 347 257 242 289 303 293 295 309 319 326
332 338 340 341 342 348 338 341 333 336 332 334 339 342 36 14 34 10 73 17 20 33 24 0 7 11 25 48 84 55 75 95 66 76 86 158 145 239 252 289 290 324 39 40 28 27 330 304 356 324 324 328 335 329
316 329 331 337 340 350 335 337 341 337 342 344 346 26 32 356 342 335 2 8 56 36 65 352 339 34 46 50 63 90 50 92 139 103 139 206 271 281 313 291 274 270 255 346 9 8 336 326 349 348 341 331 327 326
319 312 326 335 335 336 340 335 334 342 1 6 4 360 347 329 357 354 4 25 348 67 95 311 314 9 27 72 106 169 139 187 171 94 257 171 242 316 7 47 83 89 89 38 34 31 18 13 3 348 338 329 322 331
329 313 323 335 332 333 336 332 334 346 347 338 325 318 346 17 354 344 30 340 329 16 352 328 323 219 32 80 122 125 62 227 100 136 225 227 104 63 40 78 81 80 65 56 40 24 6 5 1 349 344 1 338 335
334 324 314 325 323 331 335 321 321 334 337 322 336 345 7 1 346 4 48 94 3 345 343 224 122 298 164 56 80 91 173 95 144 230 239 88 112 124 109 95 82 69 63 49 31 32 35 18 6 15 9 353 351 352
330 325 314 316 325 344 344 327 323 343 341 340 341 356 5 329 324 283 280 324 342 286 220 182 86 30 7 115 103 157 114 230 237 240 221 129 139 147 126 103 85 81 65 41 38 55 32 15 20 9 9 8 8 15
334 332 320 316 327 339 333 319 312 347 347 331 324 341 333 329 299 291 284 261 260 184 168 118 113 118 75 120 262 101 171 222 215 278 95 142 132 143 125 106 96 87 57 39 46 50 31 32 27 22 9 13 20 23
319 331 336 332 346 342 332 314 317 350 336 307 298 291 318 318 341 8 266 277 143 137 96 92 121 167 161 289 205 215 243 230 126 134 159 142 146 138 128 118 98 81 56 44 49 53 40 36 32 33 35 23 32 37
288 297 287 288 331 327 315 345 351 355 312 315 290 282 283 277 259 297 319 13 157 95 38 110 208 54 145 223 222 223 339 86 142 159 143 150 143 137 131 125 107 82 53 45 48 50 50 40 39 41 39 31 39 41
256 259 253 239 219 304 293 292 341 336 289 280 289 295 305 284 288 321 343 1 116 145 350 82 290 274 345 329 40 289 70 111 120 130 136 136 137 130 122 121 116 100 70 52 51 54 54 51 47 44 44 44 54 56
250 238 234 235 229 246 314 330 31 328 273 290 281 294 310 305 312 311 332 146 358 38 118 291 324 360 335 78 355 67 100 135 123 123 132 132 141 138 125 114 104 103 84 65 57 57 56 54 55 55 57 57 58 62
206 208 207 199 218 181 267 262 302 274 273 287 286 297 301 302 320 349 122 39 23 70 40 33 17 348 313 288 285 180 116 158 141 130 135 144 152 158 146 120 107 103 88 72 65 59 62 64 61 62 66 68 66 64
152 185 201 212 203 217 216 273 260 249 286 278 295 316 296 293 278 221 135 45 47 37 32 21 351 349 44 102 132 169 172 175 174 163 158 154 157 159 161 149 136 113 92 80 72 69 66 66 66 67 69 70 70 70
144 169 197 171 137 201 257 231 238 283 268 280 298 268 278 282 304 99 113 58 58 16 356 352 1 12 22 33 19 30 175 176 178 177 175 167 165 162 155 148 147 133 110 95 85 77 73 72 71 74 75 76 76 75
72 93 119 130 171 203 260 237 245 225 261 272 274 267 236 280 129 134 89 74 93 11 9 12 13 14 74 32 349 183 169 170 173 178 178 184 183 171 160 144 147 150 132 116 100 89 82 78 80 80 80 82 81 79
84 94 258 235 203 241 228 237 229 246 241 234 230 257 111 45 146 33 86 75 31 0 11 17 17 16 101 91 41 114 149 187 165 165 174 180 189 185 172 149 133 140 140 128 118 108 97 91 90 88 86 85 83 80
284 214 214 239 223 239 227 223 235 245 267 325 315 76 55 89 120 47 59 29 359 355 359 12 20 12 23 64 52 78 151 173 177 167 180 195 207 183 176 168 152 144 151 139 130 121 115 106 101 96 92 86 83 81
268 212 194 245 194 231 257 241 326 332 323 336 43 30 33 97 130 78 58 348 345 344 350 352 351 353 4 33 334 35 157 183 192 202 209 211 214 213 191 178 169 164 158 154 144 137 129 122 114 108 100 92 85 81
275 267 237 235 252 255 291 327 272 264 21 24 42 27 355 234 130 74 347 329 339 340 340 337 333 329 337 266 268 4 22 169 170 193 226 203 183 173 186 188 176 163 158 159 162 144 134 138 135 125 113 101 91 82
263 272 256 258 254 341 314 292 15 41 45 357 27 52 5 325 66 326 326 326 332 333 327 327 325 314 314 230 209 236 308 150 141 142 146 144 146 155 165 161 160 173 163 160 170 166 150 132 144 145 137 124 109 94
254 250 219 274 241 134 82 31 77 95 360 347 80 132 146 163 87 337 318 333 335 338 337 333 348 336 287 221 177 191 315 164 162 164 170 181 192 198 200 198 193 193 190 188 194 192 185 170 173 180 178 182 191 183
246 203 186 192 210 183 215 200 165 156 111 132 130 136 157 168 150 16 352 326 346 3 3 358 354 4 355 232 203 185 197 207 195 202 211 224 228 225 222 219 214 205 200 198 200 196 190 189 186 187 193 213 233 236
222 203 189 153 167 195 198 161 140 135 118 98 99 117 153 192 244 294 356 355 339 348 353 6 9 8 359 321 210 190 196 209 205 202 174 184 222 220 214 211 204 200 198 200 200 196 193 189 185 189 202 231 223 217
196 206 155 161 181 177 175 168 165 162 147 138 143 102 145 257 248 283 339 350 354 346 354 3 5 9 4 351 293 215 187 189 190 213 158 142 134 167 174 179 179 179 184 186 189 189 185 186 190 201 231 215 207 219
184 170 160 147 157 184 195 188 196 161 152 160 165 194 218 246 257 288 343 343 342 345 349 350 354 0 3 356 345 285 218 209 209 195 169 180 205 182 180 181 180 177 181 184 181 180 182 189 203 214 207 214 228 239